Weather History for KNBT - February, 2013

Change the Weather History Date:

Thursday, February 14, 2013

  Actual Average (KEWN) Record (KEWN)
Temperature  
Mean Temperature 48 °F 47 °F  
Max Temperature 52 °F 58 °F 79 °F (1949)
Min Temperature 45 °F 36 °F 16 °F (1955)
Degree Days  
Heating Degree Days 16 18  
Month to date heating degree days 268  
Since 1 July heating degree days 1908  
Cooling Degree Days 0 0  
Month to date cooling degree days 0  
Year to date cooling degree days 1  
Moisture  
Dew Point 39 °F    
Average Humidity 74    
Maximum Humidity 82    
Minimum Humidity 66    
Precipitation  
Precipitation 0.00 in 0.13 in 2.77 in (1984)
Month to date precipitation 1.74  
Year to date precipitation 5.76  
Snow  
Snow 0.00 in - - ()
Month to date snowfall  
Since 1 July snowfall  
Snow Depth -    
Sea Level Pressure  
Sea Level Pressure 30.01 in    
Wind  
Wind Speed 9 mph (North)    
Max Wind Speed 15 mph    
Max Gust Speed 22 mph    
Visibility 10 miles    
Events      
T = Trace of Precipitation, MM = Missing Value Source: NWS Daily Summary

Daily Weather History Graph

Daily Weather History Graph

Search for Another Location

Airport or City:

Trip Planner

Search our weather history database for the weather conditions in past years. The results will help you decide how hot, cold, wet, or windy it might be!

Date:

Astronomy

Feb. 14, 2013 Rise Set
Actual Time 6:52 AM EST 5:47 PM EST
Civil Twilight 6:26 AM EST 6:13 PM EST
Nautical Twilight 5:57 AM EST 6:43 PM EST
Astronomical Twilight 5:27 AM EST 7:12 PM EST
Moon 9:06 AM EST (2/14) 10:34 PM EST (2/14)
Length of Visible Light 11h 47m
Length of Day
10h 55m
Waxing Crescent, 21% of the Moon is Illuminated
Feb 14
Waxing Crescent
Feb 17
First Quarter
Feb 25
Full
Mar 4
Last Quarter
Mar 11
New

Hourly Weather History & Observations

Time (EST) Temp. Windchill Dew Point Humidity Pressure Visibility Wind Dir Wind Speed Gust Speed Precip Events Conditions
12:56 AM 52.0 °F - - N/A% 29.81 in 10.0 mi West 12.7 mph - N/A   Clear
1:56 AM 52.0 °F - 45.0 °F 77% 29.82 in 10.0 mi WNW 15.0 mph 21.9 mph N/A   Scattered Clouds
2:28 AM 51.8 °F - 44.6 °F 76% 29.82 in 10.0 mi WNW 12.7 mph - N/A   Mostly Cloudy
2:56 AM 50.0 °F - 44.1 °F 80% 29.85 in 10.0 mi NW 9.2 mph - N/A   Mostly Cloudy
3:09 AM 48.2 °F - 42.8 °F 82% 29.84 in 10.0 mi NW 10.4 mph 20.7 mph N/A   Scattered Clouds
4:56 AM 46.0 °F 41.0 °F 39.0 °F 76% 29.93 in 10.0 mi NW 10.4 mph - N/A   Clear
5:56 AM 45.0 °F 39.7 °F 37.9 °F 76% 29.96 in 10.0 mi NW 10.4 mph - N/A   Partly Cloudy
6:56 AM 45.0 °F 38.9 °F 37.0 °F 74% 29.97 in 10.0 mi North 12.7 mph - N/A   Clear
7:56 AM 45.0 °F 39.3 °F 37.9 °F 76% 29.99 in 10.0 mi North 11.5 mph 19.6 mph N/A   Clear
8:56 AM 45.0 °F 39.3 °F 37.9 °F 76% 30.04 in 10.0 mi North 11.5 mph - N/A   Clear
9:56 AM 46.0 °F 40.6 °F 37.9 °F 73% 30.02 in 10.0 mi North 11.5 mph - N/A   Clear
10:56 AM 46.9 °F - 37.9 °F 71% 30.06 in 10.0 mi NNE 10.4 mph - N/A   Scattered Clouds
11:56 AM 46.9 °F - 37.9 °F 71% 30.06 in 10.0 mi NE 6.9 mph - N/A   Mostly Cloudy
12:05 PM 46.4 °F 42.4 °F 37.4 °F 71% 30.05 in 10.0 mi NNE 8.1 mph - N/A   Scattered Clouds
12:13 PM 46.4 °F 44.3 °F 37.4 °F 71% 30.05 in 10.0 mi NNE 4.6 mph - N/A   Mostly Cloudy
12:24 PM 46.4 °F 42.9 °F 37.4 °F 71% 30.04 in 10.0 mi NNE 6.9 mph - N/A   Scattered Clouds
12:38 PM 46.4 °F 42.4 °F 37.4 °F 71% 30.04 in 10.0 mi NE 8.1 mph - N/A   Mostly Cloudy
12:45 PM 46.4 °F 42.9 °F 37.4 °F 71% 30.04 in 10.0 mi NE 6.9 mph - N/A   Scattered Clouds
12:56 PM 46.9 °F - 37.0 °F 68% 30.05 in 10.0 mi NNE 9.2 mph - N/A   Mostly Cloudy
1:07 PM 46.4 °F 42.9 °F 37.4 °F 71% 30.04 in 10.0 mi North 6.9 mph - N/A   Scattered Clouds
1:56 PM 48.9 °F - 37.9 °F 66% 30.04 in 10.0 mi North 5.8 mph - N/A   Clear
2:56 PM 48.0 °F - 37.9 °F 68% 30.03 in 10.0 mi NE 5.8 mph - N/A   Clear
3:56 PM 48.9 °F - 39.0 °F 69% 30.04 in 10.0 mi ESE 3.5 mph - N/A   Clear
4:56 PM 48.0 °F - 39.0 °F 71% 30.04 in 10.0 mi East 3.5 mph - N/A   Clear
5:56 PM 48.0 °F - 39.0 °F 71% 30.06 in 10.0 mi Calm Calm - N/A   Clear
6:56 PM 46.0 °F 43.1 °F 39.0 °F 76% 30.07 in 10.0 mi ESE 5.8 mph - N/A   Clear
7:56 PM 45.0 °F 41.8 °F 39.0 °F 80% 30.09 in 10.0 mi SE 5.8 mph - N/A   Clear
8:56 PM 45.0 °F 41.8 °F 39.9 °F 82% 30.11 in 10.0 mi SSE 5.8 mph - N/A   Clear
9:56 PM 46.9 °F - 41.0 °F 80% 30.11 in 10.0 mi Calm Calm - N/A   Clear
10:56 PM 46.9 °F - 41.0 °F 80% 30.08 in 10.0 mi Calm Calm - N/A   Clear
11:56 PM 46.0 °F 44.8 °F 39.9 °F 79% 30.07 in 10.0 mi North 3.5 mph - N/A   Clear